Zurück zum Katalog

ARIANE 1 R/B

AktivHEO
NORAD 15876·ROCKET BODY·🇫🇷 France

Gestartet Jul 2, 1985 von Guiana Space Centre

Loading…

Nächste Überflüge (nächste 24 Stunden)

TLE

AktuellSource: Space-Track

Epoche: Sep 14, 2026, 03:19 UTC

1 15876U 85056B   26257.13856459  .00000259  00000-0  10872-2 0  9990
2 15876   9.0337  59.1589 6180232 289.0328  16.3312  3.58810644188891

Verfolge ARIANE 1 R/B in Echtzeit mit AllMySat

Download on the App Store